Change the Weather History Date:

Thursday, September 19, 2013

  Actual Average Record
Temperature  
Mean Temperature 70 °F -  
Max Temperature 77 °F 71 °F 94 °F (1948)
Min Temperature 60 °F 50 °F 33 °F (1991)
Cooling Degree Days 4    
Growing Degree Days 20 (Base 50)    
Moisture  
Dew Point 61 °F    
Average Humidity 70    
Maximum Humidity 83    
Minimum Humidity 52    
Precipitation  
Precipitation 0.02 in - - ()
Sea Level Pressure  
Sea Level Pressure 29.76 in    
Wind  
Wind Speed 11 mph (West)    
Max Wind Speed 26 mph    
Max Gust Speed 31 mph    
Visibility 10 miles    
Events Thunderstorm    
Averages and records for this station are not official NWS values.
T = Trace of Precipitation, MM = Missing Value Source: NWS Daily Summary

Daily Weather History Graph

Daily Weather History Graph

Search for Another Location

Airport or City:

Trip Planner

Search our weather history database for the weather conditions in past years. The results will help you decide how hot, cold, wet, or windy it might be!

Date:

Astronomy

Sep. 19, 2013 Rise Set
Actual Time 7:01 AM CDT 7:20 PM CDT
Civil Twilight 6:33 AM CDT 7:48 PM CDT
Nautical Twilight 5:59 AM CDT 8:22 PM CDT
Astronomical Twilight 5:24 AM CDT 8:56 PM CDT
Moon 7:16 PM CDT (9/19) 7:13 AM CDT (9/19)
Length of Visible Light 13h 15m
Length of Day
12h 18m
Full, 100% of the Moon is Illuminated
Sep 19
Full
Sep 26
Last Quarter
Oct 4
New
Oct 11
First Quarter
Oct 18
Full

Hourly Weather History & Observations

Time (CDT) Temp. Dew Point Humidity Pressure Visibility Wind Dir Wind Speed Gust Speed Precip Events Conditions
12:15 AM 75.2 °F 66.2 °F 73% 29.72 in 10.0 mi South 12.7 mph - N/A   Clear
12:35 AM 75.2 °F 66.2 °F 73% 29.71 in 10.0 mi South 12.7 mph - N/A   Clear
12:55 AM 75.2 °F 66.2 °F 73% 29.71 in 10.0 mi South 12.7 mph 18.4 mph N/A   Clear
1:15 AM 75.2 °F 66.2 °F 73% 29.70 in 10.0 mi South 13.8 mph 18.4 mph N/A   Clear
1:35 AM 75.2 °F 66.2 °F 73% 29.70 in 10.0 mi South 12.7 mph - N/A   Clear
1:55 AM 75.2 °F 66.2 °F 73% 29.71 in 10.0 mi South 12.7 mph - N/A   Clear
2:15 AM 75.2 °F 66.2 °F 73% 29.71 in 10.0 mi South 12.7 mph - N/A   Clear
2:35 AM 73.4 °F 66.2 °F 78% 29.70 in 10.0 mi South 11.5 mph - N/A   Clear
2:55 AM 73.4 °F 66.2 °F 78% 29.70 in 10.0 mi South 11.5 mph 17.3 mph N/A   Clear
3:15 AM 73.4 °F 66.2 °F 78% 29.70 in 10.0 mi South 10.4 mph - N/A   Clear
3:35 AM 73.4 °F 64.4 °F 73% 29.70 in 10.0 mi South 9.2 mph - N/A   Clear
3:55 AM 73.4 °F 64.4 °F 73% 29.70 in 10.0 mi South 6.9 mph - N/A   Clear
4:15 AM 71.6 °F 64.4 °F 78% 29.69 in 10.0 mi South 8.1 mph - N/A   Clear
4:35 AM 71.6 °F 64.4 °F 78% 29.69 in 10.0 mi South 6.9 mph - N/A   Mostly Cloudy
4:55 AM 71.6 °F 64.4 °F 78% 29.69 in 10.0 mi South 8.1 mph - N/A   Scattered Clouds
5:15 AM 71.6 °F 64.4 °F 78% 29.68 in 10.0 mi South 10.4 mph - N/A   Clear
5:35 AM 69.8 °F 64.4 °F 83% 29.68 in 10.0 mi South 9.2 mph - N/A   Clear
5:55 AM 71.6 °F 64.4 °F 78% 29.68 in 10.0 mi South 6.9 mph - N/A   Clear
6:15 AM 71.6 °F 64.4 °F 78% 29.68 in 10.0 mi South 8.1 mph - N/A   Clear
6:35 AM 69.8 °F 64.4 °F 83% 29.68 in 10.0 mi South 9.2 mph - N/A   Clear
6:55 AM 69.8 °F 64.4 °F 83% 29.69 in 10.0 mi South 9.2 mph - N/A   Clear
7:15 AM 69.8 °F 64.4 °F 83% 29.69 in 10.0 mi South 5.8 mph - N/A   Clear
7:35 AM 69.8 °F 62.6 °F 78% 29.69 in 10.0 mi South 8.1 mph - N/A   Clear
7:55 AM 69.8 °F 64.4 °F 83% 29.68 in 10.0 mi South 11.5 mph - N/A   Clear
8:15 AM 71.6 °F 62.6 °F 73% 29.69 in 10.0 mi SSW 9.2 mph - N/A   Clear
8:35 AM 73.4 °F 64.4 °F 73% 29.69 in 10.0 mi SSW 11.5 mph - N/A   Clear
8:55 AM 75.2 °F 64.4 °F 69% 29.68 in 10.0 mi SSW 8.1 mph - N/A   Clear
9:15 AM 75.2 °F 64.4 °F 69% 29.65 in 10.0 mi SW 6.9 mph - N/A   Clear
9:35 AM 75.2 °F 64.4 °F 69% 29.74 in 10.0 mi WSW 13.8 mph 20.7 mph N/A   Scattered Clouds
9:55 AM 75.2 °F 62.6 °F 65% 29.76 in 10.0 mi WNW 26.5 mph 31.1 mph N/A Thunderstorm Overcast
10:15 AM 69.8 °F 62.6 °F 78% 29.74 in 10.0 mi NNW 6.9 mph - N/A Thunderstorm Thunderstorm
10:35 AM 68.0 °F 62.6 °F 83% 29.75 in 10.0 mi WNW 3.5 mph - 0.01 in Thunderstorm Thunderstorm
10:55 AM 69.8 °F 62.6 °F 78% 29.76 in 10.0 mi WSW 8.1 mph - 0.01 in   Overcast
11:15 AM 69.8 °F 62.6 °F 78% 29.77 in 10.0 mi WSW 4.6 mph - N/A   Overcast
11:35 AM 73.4 °F 60.8 °F 65% 29.76 in 10.0 mi WSW 5.8 mph - N/A   Mostly Cloudy
11:55 AM 75.2 °F 60.8 °F 61% 29.77 in 10.0 mi WSW 5.8 mph - N/A   Scattered Clouds
12:15 PM 73.4 °F 60.8 °F 65% 29.77 in 10.0 mi West 12.7 mph - N/A   Partly Cloudy
12:35 PM 73.4 °F 62.6 °F 69% 29.79 in 10.0 mi West 10.4 mph - N/A   Scattered Clouds
12:55 PM 73.4 °F 62.6 °F 69% 29.80 in 10.0 mi West 12.7 mph - N/A   Mostly Cloudy
1:15 PM 71.6 °F 60.8 °F 69% 29.81 in 10.0 mi West 12.7 mph - N/A   Overcast
1:35 PM 71.6 °F 60.8 °F 69% 29.80 in 10.0 mi WNW 12.7 mph 16.1 mph N/A   Mostly Cloudy
1:55 PM 71.6 °F 60.8 °F 69% 29.81 in 10.0 mi WNW 12.7 mph - N/A   Mostly Cloudy
2:15 PM 71.6 °F 60.8 °F 69% 29.80 in 10.0 mi NW 11.5 mph - N/A   Scattered Clouds
2:35 PM 71.6 °F 62.6 °F 73% 29.79 in 10.0 mi North 8.1 mph - N/A   Mostly Cloudy
2:55 PM 73.4 °F 64.4 °F 73% 29.77 in 10.0 mi NNW 9.2 mph - N/A   Mostly Cloudy
3:15 PM 73.4 °F 62.6 °F 69% 29.77 in 10.0 mi NNW 10.4 mph 16.1 mph N/A   Mostly Cloudy
3:35 PM 77.0 °F 62.6 °F 61% 29.75 in 10.0 mi NNW 15.0 mph 19.6 mph N/A   Mostly Cloudy
3:55 PM 75.2 °F 60.8 °F 61% 29.76 in 10.0 mi NNW 15.0 mph 19.6 mph N/A   Scattered Clouds
4:15 PM 75.2 °F 60.8 °F 61% 29.79 in 10.0 mi NNW 11.5 mph - N/A   Partly Cloudy
4:35 PM 73.4 °F 60.8 °F 65% 29.80 in 10.0 mi NW 10.4 mph - N/A   Mostly Cloudy
4:55 PM 73.4 °F 60.8 °F 65% 29.79 in 10.0 mi NW 8.1 mph - N/A   Overcast
5:15 PM 73.4 °F 60.8 °F 65% 29.81 in 10.0 mi NW 6.9 mph - N/A   Overcast
5:35 PM 73.4 °F 60.8 °F 65% 29.80 in 10.0 mi NW 8.1 mph - N/A   Overcast
5:55 PM 73.4 °F 60.8 °F 65% 29.81 in 10.0 mi WNW 12.7 mph - N/A   Mostly Cloudy
6:15 PM 71.6 °F 60.8 °F 69% 29.83 in 10.0 mi NW 12.7 mph - N/A   Scattered Clouds
6:35 PM 71.6 °F 59.0 °F 64% 29.83 in 10.0 mi NW 10.4 mph - N/A   Partly Cloudy
6:55 PM 69.8 °F 59.0 °F 68% 29.81 in 10.0 mi NW 8.1 mph - N/A   Clear
7:15 PM 69.8 °F 59.0 °F 68% 29.81 in 10.0 mi NNW 5.8 mph - N/A   Clear
7:35 PM 68.0 °F 60.8 °F 78% 29.82 in 10.0 mi NNW 5.8 mph - N/A   Clear
7:55 PM 66.2 °F 59.0 °F 78% 29.82 in 10.0 mi NW 6.9 mph - N/A   Clear
8:15 PM 66.2 °F 59.0 °F 78% 29.83 in 10.0 mi NW 5.8 mph - N/A   Partly Cloudy
8:35 PM 66.2 °F 57.2 °F 73% 29.83 in 10.0 mi WNW 8.1 mph - N/A   Mostly Cloudy
8:55 PM 66.2 °F 51.8 °F 60% 29.83 in 10.0 mi NW 13.8 mph 21.9 mph N/A   Partly Cloudy
9:15 PM 66.2 °F 50.0 °F 56% 29.84 in 10.0 mi NW 11.5 mph 18.4 mph N/A   Clear
9:35 PM 66.2 °F 48.2 °F 52% 29.85 in 10.0 mi NW 13.8 mph 18.4 mph N/A   Clear
9:55 PM 66.2 °F 48.2 °F 52% 29.85 in 10.0 mi NW 10.4 mph - N/A   Partly Cloudy
10:15 PM 64.4 °F 48.2 °F 56% 29.87 in 10.0 mi NW 12.7 mph 16.1 mph N/A   Partly Cloudy
10:35 PM 64.4 °F 48.2 °F 56% 29.89 in 10.0 mi WNW 10.4 mph - N/A   Clear
10:55 PM 62.6 °F 48.2 °F 59% 29.88 in 10.0 mi WNW 12.7 mph - N/A   Clear
11:15 PM 64.4 °F 48.2 °F 56% 29.90 in 10.0 mi WNW 13.8 mph - N/A   Scattered Clouds
11:35 PM 62.6 °F 48.2 °F 59% 29.90 in 10.0 mi NW 16.1 mph - N/A   Overcast
11:55 PM 60.8 °F 50.0 °F 68% 29.90 in 10.0 mi WNW 12.7 mph 21.9 mph 0.01 in   Overcast